Flag for U.S.A. Weather past 2 weeks in Hialeah, Florida, U.S.A.

67 °F

Passing clouds.

Feels Like: 67 °F
Forecast: 72 / 82 °F
Wind: 3 mph from East

Location: Opa Locka Airport

Current Time: Dec 1, 2015 at 1:20:53 AM

Latest Report: Dec 1, 2015 at 12:53 AM

Visibility: 10 mi

Pressure: 30.00 "Hg

Humidity: 100%

Dew point: 67 °F

Location of HialeahLocation

Historic Weather in Hialeah — Graph


Hialeah temperature yesterday

Maximum temperature yesterday: 79 °F (at 1:53 PM)
Minimum temperature yesterday: 70 °F (at 11:53 PM)
Average temperature yesterday: 74 °F

Past Weeks' High & Low Weather Summary

High87 °F (Nov 20, 2:53 PM)100% (Nov 16, 3:53 PM)30.30 "Hg (Nov 16, 3:53 PM)
Low60 °F (Nov 29, 6:53 AM)47% (Nov 24, 10:53 AM)29.80 "Hg (Nov 22, 2:53 PM)
Average75 °F77%30.05 "Hg
* Reported Nov 16 12:53 AM — Nov 30 11:53 PM, Hialeah, Weather by CustomWeather, © 2015

Note: Actual official high and low records may vary slightly from our data, if they occured in-between our weather recording intervals... More about our weather records


Hialeah weather history for previous 24 hours

Time TempWeatherWind HumidityBarometerVisibility
11:53 PM
Mon, Nov 30
70 °FPassing clouds.5 mph100%30.01 "Hg10 mi
10:53 PM71 °FClear.3 mph100%30.02 "Hg10 mi
9:53 PM72 °FPassing clouds.No wind100%30.02 "Hg10 mi
8:53 PM73 °FClear.5 mph97%30.02 "Hg10 mi
7:53 PM73 °FPartly cloudy.No wind97%30.02 "Hg10 mi
6:53 PM73 °FPartly cloudy.No wind94%30.01 "Hg10 mi
5:53 PM75 °FOvercast.8 mph88%29.99 "Hg10 mi
4:53 PM76 °FPartly sunny.9 mph88%29.98 "Hg10 mi
3:53 PM78 °FPartly sunny.8 mph79%29.98 "Hg10 mi
2:53 PM78 °FBroken clouds.14 mph76%29.98 "Hg10 mi
1:53 PM79 °FMostly cloudy.12 mph72%29.99 "Hg10 mi
12:53 PM74 °FMore clouds than sun.10 mph94%30.01 "Hg10 mi
12:03 PM74 °FBroken clouds.16 mph97%30.03 "Hg10 mi
11:53 AM73 °FBroken clouds.8 mph100%30.03 "Hg10 mi
10:53 AM72 °FMostly cloudy.10 mph100%30.06 "Hg10 mi
9:53 AM73 °FLight rain. More clouds than sun.9 mph100%30.06 "Hg10 mi
8:53 AM73 °FMostly cloudy.6 mph97%30.05 "Hg10 mi
7:53 AM73 °FLight rain. Fog.N/A97%30.03 "Hg6 mi
7:04 AM74 °FLight rain. Partly sunny.5 mph91%30.01 "Hg10 mi
6:53 AM74 °FPartly sunny.8 mph91%30.01 "Hg10 mi
5:53 AM74 °FLight rain. Mostly cloudy.6 mph91%29.99 "Hg10 mi
4:53 AM74 °FClear.7 mph88%29.98 "Hg10 mi
3:53 AM75 °FPassing clouds.7 mph79%29.97 "Hg10 mi
2:53 AM75 °FPassing clouds.7 mph79%29.98 "Hg10 mi
1:53 AM75 °FPassing clouds.8 mph76%29.99 "Hg10 mi
Weather by CustomWeather, © 2015

See weather overviewHow to use our weather pages